^^
Saratoga-Weather Station Historical Data
Daily Summary for August 16, 2020 Units:  English    Metric   Both
Daily Weekly Monthly Yearly Custom
  High: Low: Average:
Temperature: 92.7 °F 59.4 °F 73 °F
Dew Point: 62.4 °F 50.7 °F 57.6 °F
Humidity: 89% 30% 62%
Wind Speed: 12.1mph 0mph 1.1mph
Wind Gust: 19mph - -
Wind- - SSW
Pressure: 30.1 in 30 in -
Precipitation: 0 in    
Historical Graphs
 
 
Tabular Data for August 16, 2020
Time Temperature Dew Point Pressure Wind Wind Speed Wind Gust Humidity Rainfall Rate (Hourly) solar
00:04 69.6 °F 58.1 °F 30 in Calm     67% 0 in 0 W/m2
00:09 69.6 °F 58.1 °F 30 in Calm     67% 0 in 0 W/m2
00:14 69.4 °F 57.9 °F 30 in Calm     67% 0 in 0 W/m2
00:19 69.4 °F 57.9 °F 30 in Calm     67% 0 in 0 W/m2
00:24 69.3 °F 58.3 °F 30 in Calm     68% 0 in 0 W/m2
00:29 69.3 °F 58.3 °F 30.1 in Calm     68% 0 in 0 W/m2
00:34 69.1 °F 58.1 °F 30.1 in Calm     68% 0 in 0 W/m2
00:39 68.7 °F 58.1 °F 30 in Calm     69% 0 in 0 W/m2
00:44 68.5 °F 57.9 °F 30.1 in Calm     69% 0 in 0 W/m2
00:49 68.4 °F 58.3 °F 30.1 in Calm     70% 0 in 0 W/m2
00:54 68.2 °F 58.1 °F 30.1 in Calm   1 mph 70% 0 in 0 W/m2
00:59 67.8 °F 57.7 °F 30 in Calm     70% 0 in 0 W/m2
01:04 67.6 °F 57.9 °F 30 in Calm   1 mph 71% 0 in 0 W/m2
01:09 67.5 °F 57.7 °F 30 in Calm     71% 0 in 0 W/m2
01:14 67.5 °F 57.7 °F 30.1 in Calm     71% 0 in 0 W/m2
01:19 67.3 °F 57.6 °F 30.1 in Calm     71% 0 in 0 W/m2
01:24 67.3 °F 57.9 °F 30 in Calm     72% 0 in 0 W/m2
01:29 67.1 °F 58.1 °F 30 in Calm     73% 0 in 0 W/m2
01:34 66.9 °F 58.3 °F 30 in Calm     74% 0 in 0 W/m2
01:39 67.1 °F 58.8 °F 30 in Calm     75% 0 in 0 W/m2
01:44 67.3 °F 58.6 °F 30 in Calm     74% 0 in 0 W/m2
01:49 67.3 °F 58.3 °F 30 in Calm     73% 0 in 0 W/m2
01:54 67.3 °F 58.6 °F 30 in Calm     74% 0 in 0 W/m2
01:59 66.9 °F 58.3 °F 30 in Calm     74% 0 in 0 W/m2
02:04 66.7 °F 58.1 °F 30 in Calm     74% 0 in 0 W/m2
02:09 66.6 °F 58.1 °F 30 in Calm     74% 0 in 0 W/m2
02:14 66.4 °F 58.3 °F 30 in Calm     75% 0 in 0 W/m2
02:19 66 °F 57.9 °F 30 in Calm     75% 0 in 0 W/m2
02:24 65.8 °F 57.7 °F 30 in Calm     75% 0 in 0 W/m2
02:29 65.8 °F 58.1 °F 30 in Calm     76% 0 in 0 W/m2
02:34 65.7 °F 57.9 °F 30 in Calm     76% 0 in 0 W/m2
02:39 65.5 °F 57.7 °F 30 in Calm     76% 0 in 0 W/m2
02:44 65.3 °F 57.6 °F 30 in Calm     76% 0 in 0 W/m2
02:49 64.9 °F 57.6 °F 30 in Calm     77% 0 in 0 W/m2
02:54 64.9 °F 57.6 °F 30 in Calm     77% 0 in 0 W/m2
02:59 64.8 °F 57.4 °F 30 in Calm     77% 0 in 0 W/m2
03:05 64.6 °F 57.6 °F 30 in Calm     78% 0 in 0 W/m2
03:10 64.4 °F 57.4 °F 30 in Calm     78% 0 in 0 W/m2
03:15 64.2 °F 57.2 °F 30 in Calm     78% 0 in 0 W/m2
03:20 64 °F 57.4 °F 30 in Calm     79% 0 in 0 W/m2
03:25 64 °F 57.4 °F 30 in Calm     79% 0 in 0 W/m2
03:30 63.9 °F 57.2 °F 30 in Calm     79% 0 in 0 W/m2
03:35 63.9 °F 56.8 °F 30 in Calm     78% 0 in 0 W/m2
03:40 64 °F 57 °F 30 in Calm   1 mph 78% 0 in 0 W/m2
03:45 64.2 °F 57.2 °F 30 in Calm   1 mph 78% 0 in 0 W/m2
03:50 64.6 °F 57.2 °F 30 in Calm     77% 0 in 0 W/m2
03:55 64.4 °F 57 °F 30 in Calm   1 mph 77% 0 in 0 W/m2
04:00 64.2 °F 56.8 °F 30 in Calm     77% 0 in 0 W/m2
04:05 64 °F 56.7 °F 30 in Calm     77% 0 in 0 W/m2
04:10 64 °F 57 °F 30 in Calm     78% 0 in 0 W/m2
04:15 63.9 °F 56.8 °F 30 in Calm     78% 0 in 0 W/m2
04:20 63.5 °F 56.5 °F 30 in Calm     78% 0 in 0 W/m2
04:25 63.3 °F 56.7 °F 30 in Calm     79% 0 in 0 W/m2
04:30 63 °F 56.7 °F 30 in Calm     80% 0 in 0 W/m2
04:35 63 °F 56.7 °F 30 in Calm     80% 0 in 0 W/m2
04:40 63 °F 56.7 °F 30 in Calm     80% 0 in 0 W/m2
04:45 63 °F 56.7 °F 30 in Calm     80% 0 in 0 W/m2
04:50 63 °F 56.7 °F 30 in Calm     80% 0 in 0 W/m2
04:55 62.6 °F 56.3 °F 30 in Calm     80% 0 in 0 W/m2
05:00 62.4 °F 56.1 °F 30 in Calm     80% 0 in 0 W/m2
05:05 62.2 °F 56.3 °F 30 in Calm     81% 0 in 0 W/m2
05:10 62.1 °F 56.1 °F 30 in Calm     81% 0 in 0 W/m2
05:15 62.1 °F 56.5 °F 30 in Calm     82% 0 in 0 W/m2
05:20 62.1 °F 56.5 °F 30 in Calm     82% 0 in 0 W/m2
05:25 62.1 °F 56.5 °F 30 in Calm     82% 0 in 0 W/m2
05:30 62.1 °F 56.5 °F 30 in Calm     82% 0 in 0 W/m2
05:35 62.1 °F 56.5 °F 30 in Calm     82% 0 in 0 W/m2
05:40 61.9 °F 56.7 °F 30 in Calm     83% 0 in 0 W/m2
05:45 61.7 °F 56.8 °F 30 in Calm     84% 0 in 0 W/m2
05:50 61.5 °F 56.7 °F 30 in Calm     84% 0 in 0 W/m2
05:56 61.3 °F 56.5 °F 30 in Calm     84% 0 in 0 W/m2
06:01 61.2 °F 56.7 °F 30 in Calm     85% 0 in 0 W/m2
06:06 61.2 °F 56.7 °F 30 in Calm     85% 0 in 0 W/m2
06:11 61.2 °F 56.7 °F 30 in Calm     85% 0 in 0 W/m2
06:16 61 °F 56.5 °F 30 in Calm     85% 0 in 0 W/m2
06:21 60.8 °F 56.3 °F 30 in Calm     85% 0 in 0 W/m2
06:26 60.6 °F 56.1 °F 30 in Calm     85% 0 in 0 W/m2
06:31 60.4 °F 56.3 °F 30 in Calm     86% 0 in 0 W/m2
06:36 60.4 °F 56.3 °F 30 in Calm     86% 0 in 0 W/m2
06:41 60.3 °F 56.1 °F 30 in Calm     86% 0 in 0 W/m2
06:46 60.3 °F 56.1 °F 30 in Calm     86% 0 in 0 W/m2
06:51 60.3 °F 56.1 °F 30 in Calm     86% 0 in 0 W/m2
06:56 60.1 °F 55.9 °F 30 in Calm     86% 0 in 0 W/m2
07:01 59.9 °F 55.9 °F 30 in Calm     87% 0 in 0 W/m2
07:06 59.7 °F 55.8 °F 30 in Calm     87% 0 in 0 W/m2
07:11 59.7 °F 55.8 °F 30 in Calm     87% 0 in 0 W/m2
07:16 59.5 °F 55.6 °F 30 in Calm     87% 0 in 0 W/m2
07:21 59.4 °F 55.8 °F 30 in Calm     88% 0 in 0 W/m2
07:26 59.5 °F 55.9 °F 30 in Calm     88% 0 in 5 W/m2
07:31 59.5 °F 55.9 °F 30 in Calm     88% 0 in 7 W/m2
07:36 59.5 °F 55.9 °F 30 in Calm     88% 0 in 11 W/m2
07:41 59.5 °F 55.9 °F 30 in Calm     88% 0 in 12 W/m2
07:46 59.5 °F 56.3 °F 30 in Calm     89% 0 in 14 W/m2
07:51 59.5 °F 55.9 °F 30 in Calm     88% 0 in 16 W/m2
07:56 59.7 °F 56.1 °F 30.1 in Calm     88% 0 in 19 W/m2
08:01 59.7 °F 56.1 °F 30.1 in Calm     88% 0 in 21 W/m2
08:06 59.9 °F 56.3 °F 30.1 in Calm     88% 0 in 25 W/m2
08:11 60.1 °F 56.5 °F 30.1 in Calm     88% 0 in 28 W/m2
08:16 60.3 °F 56.3 °F 30.1 in Calm     87% 0 in 32 W/m2
08:21 60.4 °F 56.5 °F 30.1 in Calm     87% 0 in 44 W/m2
08:26 60.6 °F 56.5 °F 30.1 in Calm     86% 0 in 90 W/m2
08:31 61 °F 56.5 °F 30.1 in Calm     85% 0 in 93 W/m2
08:36 61.3 °F 56.8 °F 30.1 in Calm     85% 0 in 109 W/m2
08:41 61.7 °F 57.2 °F 30.1 in ESE 0.9 mph 2 mph 85% 0 in 123 W/m2
08:46 62.2 °F 57.4 °F 30.1 in Calm   2 mph 84% 0 in 47 W/m2
08:51 62.8 °F 57.6 °F 30.1 in ENE 2 mph 2 mph 83% 0 in 42 W/m2
08:56 63.1 °F 57.2 °F 30.1 in ENE 2 mph 2 mph 81% 0 in 151 W/m2
09:01 63.7 °F 57.7 °F 30.1 in Calm   1 mph 81% 0 in 178 W/m2
09:06 64 °F 58.1 °F 30.1 in East 0.9 mph 2 mph 81% 0 in 195 W/m2
09:11 64.4 °F 58.1 °F 30.1 in ENE 0.9 mph 2 mph 80% 0 in 204 W/m2
09:16 64.8 °F 58.1 °F 30.1 in East 0.9 mph 2 mph 79% 0 in 128 W/m2
09:21 65.3 °F 58.3 °F 30.1 in Calm     78% 0 in 62 W/m2
09:26 65.8 °F 58.5 °F 30.1 in Calm     77% 0 in 69 W/m2
09:31 66.6 °F 58.8 °F 30.1 in Calm   2 mph 76% 0 in 90 W/m2
09:36 67.3 °F 59 °F 30.1 in Calm     75% 0 in 107 W/m2
09:41 67.6 °F 59.4 °F 30.1 in East 0.9 mph 1 mph 75% 0 in 132 W/m2
09:46 68.4 °F 59.7 °F 30.1 in NE 0.9 mph 2 mph 74% 0 in 142 W/m2
09:51 69.1 °F 59.4 °F 30.1 in ENE 2 mph 2 mph 71% 0 in 155 W/m2
09:56 69.6 °F 58.6 °F 30.1 in NE 2 mph 3 mph 68% 0 in 160 W/m2
10:01 70 °F 59 °F 30.1 in NE 0.9 mph 1 mph 68% 0 in 155 W/m2
10:06 70.3 °F 59.4 °F 30.1 in East 2.9 mph 3 mph 68% 0 in 158 W/m2
10:11 71.1 °F 59.2 °F 30.1 in ENE 2 mph 2 mph 66% 0 in 149 W/m2
10:16 71.4 °F 59 °F 30.1 in Calm   1 mph 65% 0 in 139 W/m2
10:21 71.8 °F 59.4 °F 30.1 in ENE 0.9 mph 1 mph 65% 0 in 149 W/m2
10:26 72.3 °F 59.5 °F 30.1 in ENE 2.9 mph 3 mph 64% 0 in 132 W/m2
10:31 72.7 °F 59.4 °F 30.1 in Calm   2 mph 63% 0 in 135 W/m2
10:36 72.5 °F 59.2 °F 30.1 in Calm   2 mph 63% 0 in 142 W/m2
10:41 72.7 °F 59.4 °F 30.1 in East 0.9 mph 2 mph 63% 0 in 162 W/m2
10:46 72.7 °F 59.4 °F 30.1 in East 0.9 mph 2 mph 63% 0 in 155 W/m2
10:51 72.7 °F 58.8 °F 30.1 in ENE 0.9 mph 2 mph 62% 0 in 137 W/m2
10:56 72.9 °F 59 °F 30.1 in Calm   1 mph 62% 0 in 107 W/m2
11:01 73.2 °F 59 °F 30.1 in Calm     61% 0 in 91 W/m2
11:06 73.8 °F 59 °F 30.1 in Calm   1 mph 60% 0 in 86 W/m2
11:11 73.9 °F 57.7 °F 30.1 in Calm   1 mph 57% 0 in 88 W/m2
11:16 74.5 °F 57.7 °F 30.1 in Calm   2 mph 56% 0 in 88 W/m2
11:21 74.8 °F 58.6 °F 30.1 in West 0.9 mph 1 mph 57% 0 in 97 W/m2
11:26 75.7 °F 59.4 °F 30.1 in Calm   2 mph 57% 0 in 95 W/m2
11:32 76.5 °F 59.2 °F 30.1 in Calm   2 mph 55% 0 in 95 W/m2
11:37 77.4 °F 58.8 °F 30.1 in Calm   1 mph 53% 0 in 93 W/m2
11:42 78.3 °F 59.2 °F 30.1 in ENE 0.9 mph 2 mph 52% 0 in 230 W/m2
11:47 78.4 °F 58.8 °F 30.1 in ENE 0.9 mph 1 mph 51% 0 in 541 W/m2
11:52 79.2 °F 59.5 °F 30.1 in ESE 2 mph 3 mph 51% 0 in 559 W/m2
11:57 79.9 °F 60.1 °F 30.1 in ENE 0.9 mph 2 mph 51% 0 in 568 W/m2
12:02 80.4 °F 60.1 °F 30.1 in SSE 2 mph 2 mph 50% 0 in 573 W/m2
12:07 81 °F 60.1 °F 30.1 in SSE 0.9 mph 1 mph 49% 0 in 578 W/m2
12:12 81.1 °F 60.1 °F 30.1 in Calm   1 mph 49% 0 in 585 W/m2
12:17 81.3 °F 60.3 °F 30.1 in WNW 2 mph 2 mph 49% 0 in 599 W/m2
12:22 81.9 °F 60.8 °F 30.1 in WNW 0.9 mph 1 mph 49% 0 in 612 W/m2
12:27 82.2 °F 61.7 °F 30.1 in Calm     50% 0 in 629 W/m2
12:32 82.8 °F 61 °F 30.1 in West 0.9 mph 3 mph 48% 0 in 643 W/m2
12:37 83.3 °F 61.5 °F 30.1 in East 0.9 mph 1 mph 48% 0 in 671 W/m2
12:42 84.4 °F 61.3 °F 30.1 in ENE 0.9 mph 2 mph 46% 0 in 677 W/m2
12:47 84.7 °F 61 °F 30 in ESE 2 mph 2 mph 45% 0 in 691 W/m2
12:52 85.5 °F 61.7 °F 30 in NE 2 mph 3 mph 45% 0 in 686 W/m2
12:57 86.2 °F 62.4 °F 30 in Calm   2 mph 45% 0 in 694 W/m2
13:02 86.2 °F 61 °F 30 in Calm   2 mph 43% 0 in 671 W/m2
13:07 86.4 °F 61.2 °F 30 in ENE 4 mph 4 mph 43% 0 in 671 W/m2
13:12 86.5 °F 62.1 °F 30 in SE 0.9 mph 1 mph 44% 0 in 686 W/m2
13:17 87.1 °F 61.9 °F 30 in ESE 2 mph 4 mph 43% 0 in 719 W/m2
13:22 87.4 °F 61.5 °F 30 in Calm   4 mph 42% 0 in 722 W/m2
13:27 88 °F 60.6 °F 30 in East 2 mph 4 mph 40% 0 in 714 W/m2
13:32 88.3 °F 60.3 °F 30 in NNW 0.9 mph 2 mph 39% 0 in 772 W/m2
13:37 88.5 °F 61.2 °F 30 in Calm   4 mph 40% 0 in 738 W/m2
13:42 89.2 °F 60.3 °F 30 in ESE 2 mph 4 mph 38% 0 in 798 W/m2
13:47 89.4 °F 60.4 °F 30 in ESE 0.9 mph 1 mph 38% 0 in 803 W/m2
13:52 90 °F 60.3 °F 30 in NE 2.9 mph 6 mph 37% 0 in 803 W/m2
13:57 90.3 °F 60.4 °F 30 in NE 2 mph 3 mph 37% 0 in 775 W/m2
14:02 90.3 °F 59.7 °F 30 in WNW 2 mph 4 mph 36% 0 in 754 W/m2
14:07 90.5 °F 60.6 °F 30 in ENE 2 mph 4 mph 37% 0 in 731 W/m2
14:12 90.3 °F 59.7 °F 30 in NE 2.9 mph 3 mph 36% 0 in 714 W/m2
14:17 90.5 °F 59.2 °F 30 in ENE 4 mph 5 mph 35% 0 in 733 W/m2
14:22 90.7 °F 59.2 °F 30 in Calm   4 mph 35% 0 in 759 W/m2
14:27 91 °F 58.8 °F 30 in WNW 0.9 mph 5 mph 34% 0 in 768 W/m2
14:32 91.2 °F 59.7 °F 30 in SE 2 mph 6 mph 35% 0 in 454 W/m2
14:37 91 °F 58.8 °F 30 in Calm   2 mph 34% 0 in 731 W/m2
14:42 91 °F 57.9 °F 30 in East 2.9 mph 7 mph 33% 0 in 668 W/m2
14:47 91 °F 57.9 °F 30 in ENE 2 mph 4 mph 33% 0 in 703 W/m2
14:52 91 °F 58.8 °F 30 in NW 2 mph 5 mph 34% 0 in 686 W/m2
14:57 91.6 °F 57.6 °F 30 in Calm   3 mph 32% 0 in 679 W/m2
15:02 91.6 °F 57.6 °F 30 in North 4 mph 9 mph 32% 0 in 677 W/m2
15:07 91.6 °F 59.2 °F 30 in East 2 mph 7 mph 34% 0 in 668 W/m2
15:12 91.8 °F 59.4 °F 30 in ESE 2.9 mph 9 mph 34% 0 in 622 W/m2
15:17 91.9 °F 58.6 °F 30 in East 0.9 mph 6 mph 33% 0 in 598 W/m2
15:22 91.9 °F 57.9 °F 30 in NE 2 mph 8 mph 32% 0 in 589 W/m2
15:27 92.1 °F 58.1 °F 30 in East 2 mph 3 mph 32% 0 in 591 W/m2
15:32 92.1 °F 57.2 °F 30 in ENE 0.9 mph 3 mph 31% 0 in 601 W/m2
15:37 92.3 °F 56.3 °F 30 in Calm   2 mph 30% 0 in 599 W/m2
15:42 92.7 °F 56.7 °F 30 in Calm   3 mph 30% 0 in 580 W/m2
15:47 92.3 °F 56.3 °F 30 in West 2.9 mph 4 mph 30% 0 in 246 W/m2
15:53 91.6 °F 57.6 °F 30 in SW 0.9 mph 1 mph 32% 0 in 97 W/m2
15:58 90.9 °F 56.8 °F 30 in NW 2 mph 3 mph 32% 0 in 120 W/m2
16:03 90.1 °F 55.4 °F 30 in NE 2.9 mph 4 mph 31% 0 in 137 W/m2
16:08 90 °F 56.1 °F 30 in East 2 mph 4 mph 32% 0 in 146 W/m2
16:13 89.2 °F 54.7 °F 30 in NNW 4 mph 13 mph 31% 0 in 137 W/m2
16:18 88 °F 55.2 °F 30 in NNW 4 mph 7 mph 33% 0 in 142 W/m2
16:23 87.1 °F 52.7 °F 30 in WNW 6.9 mph 8 mph 31% 0 in 148 W/m2
16:28 85.6 °F 50.7 °F 30 in NNW 4 mph 15 mph 30% 0 in 142 W/m2
16:33 84.4 °F 51.3 °F 30 in WNW 2 mph 16 mph 32% 0 in 127 W/m2
16:38 83.8 °F 51.6 °F 30 in North 4.9 mph 13 mph 33% 0 in 102 W/m2
16:43 83.8 °F 51.6 °F 30 in WNW 4.9 mph 10 mph 33% 0 in 86 W/m2
16:48 83.7 °F 53.1 °F 30 in WNW 8.9 mph 15 mph 35% 0 in 65 W/m2
16:53 82.9 °F 53.2 °F 30 in NW 6 mph 12 mph 36% 0 in 53 W/m2
16:58 82.6 °F 55 °F 30 in WNW 6 mph 19 mph 39% 0 in 40 W/m2
17:03 81.7 °F 55 °F 30 in WNW 12.1 mph 14 mph 40% 0 in 37 W/m2
17:08 81.7 °F 55 °F 30 in NW 8.9 mph 11 mph 40% 0 in 40 W/m2
17:13 81.7 °F 53.6 °F 30 in WNW 4 mph 12 mph 38% 0 in 47 W/m2
17:18 81.7 °F 54.3 °F 30 in WNW 4 mph 11 mph 39% 0 in 53 W/m2
17:23 81.1 °F 54.5 °F 30 in NW 8.9 mph 12 mph 40% 0 in 51 W/m2
17:28 80.1 °F 56.1 °F 30 in NW 4.9 mph 8 mph 44% 0 in 47 W/m2
17:34 79 °F 56.5 °F 30 in West 4 mph 8 mph 46% 0 in 42 W/m2
17:39 78.3 °F 56.3 °F 30 in WNW 2.9 mph 7 mph 47% 0 in 39 W/m2
17:44 78.4 °F 55.9 °F 30 in NNW 0.9 mph 5 mph 46% 0 in 37 W/m2
17:49 79 °F 55.2 °F 30 in NW 4.9 mph 10 mph 44% 0 in 39 W/m2
17:54 79.5 °F 55 °F 30 in NW 2 mph 7 mph 43% 0 in 46 W/m2
17:59 79.9 °F 55.9 °F 30 in WNW 2.9 mph 9 mph 44% 0 in 47 W/m2
18:04 80.2 °F 54.3 °F 30 in North 2 mph 15 mph 41% 0 in 49 W/m2
18:09 80.8 °F 54.1 °F 30 in NW 2 mph 7 mph 40% 0 in 54 W/m2
18:14 80.8 °F 54.9 °F 30 in ESE 2.9 mph 5 mph 41% 0 in 58 W/m2
18:19 80.2 °F 54.3 °F 30 in NW 10.1 mph 10 mph 41% 0 in 51 W/m2
18:24 80.1 °F 54.9 °F 30.1 in NNW 4.9 mph 9 mph 42% 0 in 39 W/m2
18:29 79.9 °F 55.4 °F 30 in NNW 2 mph 6 mph 43% 0 in 28 W/m2
18:34 79.5 °F 55.8 °F 30 in West 2 mph 3 mph 44% 0 in 26 W/m2
18:39 79.3 °F 55.6 °F 30 in West 0.9 mph 3 mph 44% 0 in 25 W/m2
18:44 79.2 °F 55.4 °F 30 in NNW 2.9 mph 7 mph 44% 0 in 19 W/m2
18:49 79 °F 55.2 °F 30 in West 2 mph 3 mph 44% 0 in 18 W/m2
18:54 79 °F 55.2 °F 30 in WSW 0.9 mph 7 mph 44% 0 in 16 W/m2
18:59 79 °F 55.2 °F 30 in NW 0.9 mph 2 mph 44% 0 in 14 W/m2
19:04 78.8 °F 55.6 °F 30 in West 2 mph 3 mph 45% 0 in 12 W/m2
19:09 78.4 °F 55.4 °F 30 in WNW 0.9 mph 2 mph 45% 0 in 12 W/m2
19:14 78.4 °F 55.4 °F 30 in NW 0.9 mph 2 mph 45% 0 in 11 W/m2
19:19 78.1 °F 55.6 °F 30 in West 2.9 mph 3 mph 46% 0 in 11 W/m2
19:24 77.9 °F 55.4 °F 30 in WNW 0.9 mph 1 mph 46% 0 in 9 W/m2
19:29 77.5 °F 55.8 °F 30 in West 2 mph 2 mph 47% 0 in 5 W/m2
19:34 77.4 °F 56.1 °F 30 in Calm   2 mph 48% 0 in 0 W/m2
19:39 77 °F 56.3 °F 30 in SW 2 mph 2 mph 49% 0 in 0 W/m2
19:44 76.6 °F 55.4 °F 30 in Calm   2 mph 48% 0 in 0 W/m2
19:49 76.5 °F 55.9 °F 30 in WSW 0.9 mph 1 mph 49% 0 in 0 W/m2
19:54 76.1 °F 55.6 °F 30 in WSW 2 mph 2 mph 49% 0 in 0 W/m2
19:59 75.9 °F 55.4 °F 30 in WSW 0.9 mph 2 mph 49% 0 in 0 W/m2
20:04 75.7 °F 55.8 °F 30 in WSW 0.9 mph 2 mph 50% 0 in 0 W/m2
20:09 75.6 °F 58.3 °F 30 in WNW 4 mph 4 mph 55% 0 in 0 W/m2
20:14 75 °F 58.8 °F 30 in WNW 0.9 mph 1 mph 57% 0 in 0 W/m2
20:19 74.8 °F 59 °F 30 in Calm     58% 0 in 0 W/m2
20:24 74.5 °F 57.7 °F 30 in Calm     56% 0 in 0 W/m2
20:29 74.1 °F 58.5 °F 30.1 in Calm     58% 0 in 0 W/m2
20:34 73.9 °F 58.6 °F 30.1 in ENE 0.9 mph 2 mph 59% 0 in 0 W/m2
20:39 73.9 °F 58.6 °F 30.1 in ENE 0.9 mph 2 mph 59% 0 in 0 W/m2
20:44 73.8 °F 59 °F 30.1 in ENE 0.9 mph 2 mph 60% 0 in 0 W/m2
20:49 73.6 °F 58.3 °F 30.1 in East 0.9 mph 4 mph 59% 0 in 0 W/m2
20:54 73.2 °F 58.5 °F 30.1 in Calm   1 mph 60% 0 in 0 W/m2
20:59 73 °F 57.9 °F 30.1 in Calm   3 mph 59% 0 in 0 W/m2
21:04 73 °F 57.9 °F 30.1 in Calm     59% 0 in 0 W/m2
21:09 73 °F 57.9 °F 30.1 in ENE 0.9 mph 1 mph 59% 0 in 0 W/m2
21:14 72.9 °F 57.7 °F 30.1 in Calm     59% 0 in 0 W/m2
21:19 72.9 °F 57.2 °F 30.1 in WSW 2 mph 3 mph 58% 0 in 0 W/m2
21:24 73 °F 57.9 °F 30.1 in Calm   2 mph 59% 0 in 0 W/m2
21:29 72.9 °F 57.7 °F 30.1 in Calm   3 mph 59% 0 in 0 W/m2
21:34 72.7 °F 57.6 °F 30.1 in West 2 mph 3 mph 59% 0 in 0 W/m2
21:40 72.5 °F 57.7 °F 30.1 in West 0.9 mph 2 mph 60% 0 in 0 W/m2
21:45 72.3 °F 57.7 °F 30.1 in West 0.9 mph 3 mph 60% 0 in 0 W/m2
21:50 72.1 °F 57.9 °F 30.1 in WSW 0.9 mph 2 mph 61% 0 in 0 W/m2
21:55 72 °F 58.3 °F 30.1 in WSW 0.9 mph 1 mph 62% 0 in 0 W/m2
22:00 71.8 °F 58.1 °F 30.1 in Calm     62% 0 in 0 W/m2
22:05 71.4 °F 58.1 °F 30.1 in Calm     63% 0 in 0 W/m2
22:10 71.1 °F 58.3 °F 30.1 in Calm   1 mph 64% 0 in 0 W/m2
22:15 70.7 °F 57.9 °F 30.1 in WSW 0.9 mph 1 mph 64% 0 in 0 W/m2
22:20 70.5 °F 58.1 °F 30.1 in Calm   1 mph 65% 0 in 0 W/m2
22:25 70.2 °F 57.9 °F 30.1 in WSW 0.9 mph 1 mph 65% 0 in 0 W/m2
22:30 70 °F 58.1 °F 30.1 in Calm   1 mph 66% 0 in 0 W/m2
22:35 69.6 °F 58.1 °F 30.1 in SW 0.9 mph 3 mph 67% 0 in 0 W/m2
22:40 69.4 °F 57.9 °F 30.1 in SW 0.9 mph 3 mph 67% 0 in 0 W/m2
22:45 69.3 °F 58.3 °F 30.1 in Calm     68% 0 in 0 W/m2
22:50 69.3 °F 58.3 °F 30.1 in Calm   3 mph 68% 0 in 0 W/m2
22:55 69.1 °F 58.5 °F 30.1 in SW 2 mph 2 mph 69% 0 in 0 W/m2
23:00 69.1 °F 58.5 °F 30.1 in Calm   1 mph 69% 0 in 0 W/m2
23:05 68.9 °F 58.6 °F 30.1 in SW 0.9 mph 1 mph 70% 0 in 0 W/m2
23:10 68.9 °F 59.2 °F 30.1 in Calm   2 mph 71% 0 in 0 W/m2
23:15 68.9 °F 59.2 °F 30.1 in SW 0.9 mph 2 mph 71% 0 in 0 W/m2
23:20 69.1 °F 59.4 °F 30.1 in Calm   1 mph 71% 0 in 0 W/m2
23:25 69.1 °F 59.7 °F 30.1 in SW 0.9 mph 2 mph 72% 0 in 0 W/m2
23:30 69.3 °F 59.5 °F 30.1 in WSW 0.9 mph 3 mph 71% 0 in 0 W/m2
23:35 69.6 °F 59.7 °F 30.1 in NNW 0.9 mph 3 mph 71% 0 in 0 W/m2
23:40 70.2 °F 59.9 °F 30.1 in WNW 2 mph 2 mph 70% 0 in 0 W/m2
23:45 70.3 °F 60.1 °F 30.1 in NW 2 mph 5 mph 70% 0 in 0 W/m2
23:50 70.5 °F 60.3 °F 30.1 in West 2 mph 6 mph 70% 0 in 0 W/m2
23:55 70.5 °F 60.3 °F 30.1 in WNW 2 mph 4 mph 70% 0 in 0 W/m2
Juneau County Weather
Compliments of Weather Underground - 4 mb